TimeMST,TemperatureF,Dew PointF,Humidity,Sea Level PressureIn,VisibilityMPH,Wind Direction,Wind SpeedMPH,Gust SpeedMPH,PrecipitationIn,Events,Conditions,WindDirDegrees,DateUTC
12:53 AM,43.0,5.0,21,29.99,10.0,South,3.5,-,N/A,,Clear,170,2013-02-17 07:53:00
1:53 AM,35.1,8.1,33,29.99,10.0,Calm,Calm,-,0.00,,Clear,0,2013-02-17 08:53:00
2:53 AM,30.0,7.0,38,29.98,10.0,Calm,Calm,-,0.00,,Clear,0,2013-02-17 09:53:00
3:53 AM,27.0,7.0,43,29.96,10.0,SSW,4.6,-,N/A,,Clear,210,2013-02-17 10:53:00
4:53 AM,24.1,6.1,46,29.97,10.0,Calm,Calm,-,N/A,,Clear,0,2013-02-17 11:53:00
5:53 AM,25.0,6.1,45,29.97,10.0,Calm,Calm,-,N/A,,Clear,0,2013-02-17 12:53:00
6:53 AM,27.0,7.0,43,29.97,10.0,WNW,3.5,-,N/A,,Clear,290,2013-02-17 13:53:00
7:53 AM,39.0,10.0,30,29.96,10.0,Calm,Calm,-,N/A,,Clear,0,2013-02-17 14:53:00
8:53 AM,45.0,9.0,23,29.96,10.0,ESE,3.5,-,N/A,,Clear,120,2013-02-17 15:53:00
9:53 AM,51.1,9.0,18,29.93,10.0,ESE,4.6,-,N/A,,Clear,120,2013-02-17 16:53:00
10:53 AM,57.0,10.0,15,29.90,10.0,ESE,5.8,-,N/A,,Clear,120,2013-02-17 17:53:00
11:53 AM,63.0,6.1,11,29.83,10.0,SSE,5.8,-,N/A,,Clear,150,2013-02-17 18:53:00
12:53 PM,69.1,3.9,8,29.78,10.0,SSE,8.1,-,N/A,,Clear,160,2013-02-17 19:53:00
1:53 PM,73.9,-6.0,4,29.73,9.0,SSW,15.0,25.3,N/A,,Clear,200,2013-02-17 20:53:00
2:53 PM,73.0,-0.0,6,29.72,10.0,WSW,19.6,24.2,N/A,,Clear,240,2013-02-17 21:53:00
3:53 PM,73.0,1.0,6,29.71,10.0,WSW,18.4,24.2,N/A,,Clear,240,2013-02-17 22:53:00
4:53 PM,71.1,1.9,7,29.70,10.0,SW,12.7,-,N/A,,Clear,230,2013-02-17 23:53:00
5:53 PM,66.0,1.0,8,29.71,10.0,WSW,15.0,-,N/A,,Clear,250,2013-02-18 00:53:00
6:53 PM,57.0,1.9,11,29.73,10.0,SSW,6.9,-,N/A,,Clear,200,2013-02-18 01:53:00
7:53 PM,57.0,1.9,11,29.70,10.0,SSW,4.6,-,N/A,,Clear,210,2013-02-18 02:53:00
8:53 PM,55.9,3.0,12,29.70,10.0,ESE,6.9,-,N/A,,Clear,110,2013-02-18 03:53:00
10:53 PM,64.0,6.1,10,29.65,10.0,SW,15.0,24.2,N/A,,Clear,220,2013-02-18 05:53:00
11:53 PM,64.0,8.1,11,29.62,10.0,West,17.3,26.5,N/A,,Clear,260,2013-02-18 06:53:00